This is the latest recevied weather packets stored in our database for station/object K5IDL. If no packets are shown the sender has not sent any weather packets the latest 10 day(s).
| Time | Temp. | Humidity | Pressure | Rain* | Wind** | Luminosity | Snow |
|---|---|---|---|---|---|---|---|
| 1777851309 | 27.78° C | 31% | 1016.7 hPa | 0 mm | - | 34 W/m² | - |
| 1777851006 | 27.78° C | 31% | 1016.6 hPa | 0 mm | - | 31 W/m² | - |
| 1777850703 | 27.78° C | 31% | 1016.5 hPa | 0 mm | - | 26 W/m² | - |
| 1777850401 | 27.22° C | 31% | 1016.7 hPa | 0 mm | - | 25 W/m² | - |
| 1777850098 | 27.22° C | 31% | 1016.7 hPa | 0 mm | - | 23 W/m² | - |
| 1777849794 | 27.22° C | 28% | 1016.7 hPa | 0 mm | - | 29 W/m² | - |
| 1777849491 | 27.78° C | 31% | 1016.7 hPa | 0 mm | - | 104 W/m² | - |
| 1777849189 | 27.78° C | 33% | 1016.7 hPa | 0 mm | - | 44 W/m² | - |
| 1777848885 | 27.78° C | 31% | 1016.8 hPa | 0 mm | - | 28 W/m² | - |
| 1777848581 | 28.33° C | 30% | 1017 hPa | 0 mm | - | 28 W/m² | - |
| 1777848278 | 27.78° C | 31% | 1016.7 hPa | 0 mm | - | 39 W/m² | - |
| 1777847976 | 27.78° C | 30% | 1016.8 hPa | 0 mm | - | 25 W/m² | - |
| 1777847674 | 27.78° C | 30% | 1017.2 hPa | 0 mm | - | 25 W/m² | - |
| 1777847369 | 27.78° C | 30% | 1017.2 hPa | 0 mm | - | 25 W/m² | - |
| 1777847068 | 27.78° C | 30% | 1017.1 hPa | 0 mm | - | 26 W/m² | - |
| 1777846766 | 28.33° C | 29% | 1017.1 hPa | 0 mm | - | 25 W/m² | - |
| 1777846464 | 28.33° C | 30% | 1017.3 hPa | 0 mm | - | 51 W/m² | - |
| 1777846160 | 28.33° C | 30% | 1017.1 hPa | 0 mm | - | 76 W/m² | - |
| 1777845856 | 28.33° C | 30% | 1017.1 hPa | 0 mm | - | 28 W/m² | - |
| 1777845554 | 28.33° C | 30% | 1017.2 hPa | 0 mm | - | 83 W/m² | - |
| 1777845251 | 28.33° C | 31% | 1017.3 hPa | 0 mm | - | 31 W/m² | - |
| 1777844948 | 28.33° C | 31% | 1017.4 hPa | 0 mm | - | 34 W/m² | - |
| 1777844645 | 28.33° C | 31% | 1017.3 hPa | 0 mm | - | 31 W/m² | - |
| 1777844343 | 27.78° C | 32% | 1017.3 hPa | 0 mm | - | 39 W/m² | - |
| 1777844041 | 28.33° C | 32% | 1017.5 hPa | 0 mm | - | 79 W/m² | - |
* Rain latest hour (hover to see other rain measurements)
** Current wind speed in m/s (hover to see current wind gust speed)